User: anonymous   Login
Location: Codford Saint Peter
(51.1597°N, 2.0531°W)
Time: 03:24:39
(UTC+00:00)
Language:

USA 229 DEB - Orbit

View from above orbital plane
View from above orbital plane
View from above satellite
View from above satellite

Ground track
Ground track

The orbit data is extracted from the following two-line orbital elements,

1 37391U 11014B   20328.17914863 0.00000000  00000-0  00000-0 0    07
2 37391  63.4410  61.9708 0181165 358.9212   1.0788 13.40810371    08
Epoch (UTC): 23 November 2020 04:17:58
Eccentricity: 0.0181165
inclination: 63.4410°
perigee height: 970 km
apogee height: 1242 km
right ascension of ascending node: 61.9708°
argument of perigee: 358.9212°
revolutions per day: 13.40810371
mean anomaly at epoch: 1.0788°
orbit number at epoch: 0

The dashed part of the orbit path shows where the satellite is in the earth's shadow,  

DLR